Reno, NV

7:57 AM PDT on March 25, 2017 (GMT -0700)
Reno-Tahoe International

Weather History for KRNO - October, 2013

Change the Weather History Date:

Friday, October 4, 2013

  Actual Average Record
Temperature  
Mean Temperature 47 °F 59 °F  
Max Temperature 60 °F 75 °F 89 °F (1987)
Min Temperature 34 °F 43 °F 20 °F (1973)
Degree Days  
Heating Degree Days 18 7  
Month to date heating degree days 46 26  
Since 1 July heating degree days 131 116  
Cooling Degree Days 0 1  
Month to date cooling degree days 0 4  
Year to date cooling degree days 1174 838  
Moisture  
Dew Point 20 °F    
Average Humidity 39    
Maximum Humidity 56    
Minimum Humidity 21    
Precipitation  
Precipitation 0.00 in 0.01 in 1.09 in (2010)
Month to date precipitation 0.00 0.06  
Year to date precipitation 3.06 5.10  
Snow  
Snow 0.00 in 0.00 in 0.40 in (1916)
Month to date snowfall 0.0 0.0  
Since 1 July snowfall T 0.1  
Since 1 September snowfall 0.0 0.1  
Snow Depth 0.00 in    
Sea Level Pressure  
Sea Level Pressure 30.33 in    
Wind  
Wind Speed 6 mph (ESE)    
Max Wind Speed 17 mph    
Max Gust Speed 23 mph    
Visibility 10 miles    
Events      
T = Trace of Precipitation, MM = Missing Value Source: NWS Daily Summary

Daily Weather History Graph

Daily Weather History Graph

Search for Another Location

Airport or City:

Trip Planner

Search our weather history database for the weather conditions in past years. The results will help you decide how hot, cold, wet, or windy it might be!

Date:

Astronomy

Oct. 04, 2013 Rise Set
Actual Time 6:58 AM PDT 6:36 PM PDT
Civil Twilight 6:31 AM PDT 7:03 PM PDT
Nautical Twilight 6:00 AM PDT 7:34 PM PDT
Astronomical Twilight 5:29 AM PDT 8:05 PM PDT
Moon 6:39 AM PDT (10/4) 6:21 PM PDT (10/4)
Length of Visible Light 12h 31m
Length of Day
11h 37m
Waning Crescent, 0% of the Moon is Illuminated
Oct 4
Waning Crescent
Oct 4
New
Oct 11
First Quarter
Oct 18
Full
Oct 26
Last Quarter

Hourly Weather History & Observations

Time (PDT) Temp. Windchill Dew Point Humidity Pressure Visibility Wind Dir Wind Speed Gust Speed Precip Events Conditions
12:55 AM 44.1 °F 42.5 °F 19.9 °F 38% 30.24 in 10.0 mi ESE 3.5 mph - N/A   Clear
1:55 AM 42.1 °F 37.7 °F 21.0 °F 43% 30.26 in 10.0 mi SSE 6.9 mph - N/A   Clear
2:55 AM 42.1 °F 38.4 °F 21.0 °F 43% 30.27 in 10.0 mi ESE 5.8 mph - N/A   Clear
3:55 AM 37.0 °F 34.5 °F 21.0 °F 52% 30.29 in 10.0 mi South 3.5 mph - N/A   Clear
4:55 AM 39.0 °F - 21.9 °F 50% 30.29 in 10.0 mi Calm Calm - N/A   Clear
5:55 AM 36.0 °F - 21.0 °F 55% 30.32 in 10.0 mi Calm Calm - N/A   Clear
6:55 AM 35.1 °F - 21.0 °F 57% 30.35 in 10.0 mi Calm Calm - N/A   Partly Cloudy
7:55 AM 37.0 °F 34.5 °F 21.0 °F 52% 30.36 in 10.0 mi South 3.5 mph - N/A   Scattered Clouds
8:55 AM 44.1 °F - 21.9 °F 42% 30.37 in 10.0 mi Calm Calm - N/A   Scattered Clouds
9:55 AM 46.9 °F - 23.0 °F 39% 30.38 in 10.0 mi Variable 5.8 mph - N/A   Scattered Clouds
10:55 AM 52.0 °F - 24.1 °F 34% 30.36 in 10.0 mi East 12.7 mph - N/A   Partly Cloudy
11:55 AM 54.0 °F - 21.9 °F 29% 30.34 in 10.0 mi ESE 12.7 mph 17.3 mph N/A   Partly Cloudy
12:55 PM 57.0 °F - 21.9 °F 26% 30.31 in 10.0 mi SE 13.8 mph 17.3 mph N/A   Clear
1:55 PM 57.9 °F - 19.9 °F 23% 30.31 in 10.0 mi East 10.4 mph 20.7 mph N/A   Clear
2:55 PM 57.9 °F - 19.9 °F 23% 30.31 in 10.0 mi East 11.5 mph 19.6 mph N/A   Clear
3:55 PM 59.0 °F - 19.0 °F 21% 30.30 in 10.0 mi East 9.2 mph 18.4 mph N/A   Clear
4:55 PM 57.9 °F - 18.0 °F 21% 30.32 in 10.0 mi ENE 12.7 mph 18.4 mph N/A   Clear
5:55 PM 55.9 °F - 17.1 °F 22% 30.32 in 10.0 mi East 13.8 mph - N/A   Clear
6:55 PM 54.0 °F - 16.0 °F 22% 30.35 in 10.0 mi East 5.8 mph - N/A   Clear
7:55 PM 52.0 °F - 15.1 °F 23% 30.35 in 10.0 mi SSE 6.9 mph - N/A   Clear
8:55 PM 48.9 °F - 15.1 °F 26% 30.36 in 10.0 mi South 4.6 mph - N/A   Clear
9:55 PM 46.0 °F 43.9 °F 17.1 °F 31% 30.37 in 10.0 mi SSW 4.6 mph - N/A   Clear
10:55 PM 45.0 °F - 17.1 °F 33% 30.36 in 10.0 mi Calm Calm - N/A   Clear
11:55 PM 43.0 °F - 18.0 °F 37% 30.37 in 10.0 mi Calm Calm - N/A   Clear